Location: Mahannah Oil Field
(37.4664°N, 96.6003°W)
Time: 19:41:48
(UTC+00:00)

Envisat - Visible Passes

Search period start: 29 November 2020 00:00
Search period end: 09 December 2020 00:00
Orbit: 764 x 766 km, 98.1° (Epoch: 29 November)

Date Brightness Start Highest point End Pass type
(mag) Time Alt. Az. Time Alt. Az. Time Alt. Az.
29 Nov 4.9 11:38:20 10° NNE 11:42:52 32° E 11:47:22 10° SSE visible
30 Nov 5.4 00:30:24 10° SSW 00:34:29 24° W 00:38:36 10° NW visible
30 Nov 6.1 11:03:14 10° ENE 11:05:46 14° E 11:08:17 10° ESE visible
30 Nov 3.0 12:40:08 10° N 12:45:08 60° WNW 12:50:08 10° SSW visible
30 Nov 3.8 23:52:33 10° S 23:57:31 57° W 00:02:31 10° NNW visible
01 Dec 3.7 12:03:22 10° NNE 12:08:22 58° E 12:13:22 10° S visible
02 Dec 6.2 00:57:44 10° WSW 01:00:08 13° W 01:02:32 10° WNW visible
02 Dec 5.3 11:27:15 10° NE 11:31:24 25° E 11:35:32 10° SSE visible
03 Dec 5.0 00:18:34 10° SSW 00:23:02 31° W 00:27:32 10° NW visible
03 Dec 6.4 10:53:39 10° E 10:54:15 10° E 10:54:51 10° E visible
03 Dec 2.9 12:28:42 10° N 12:33:47 78° WNW 12:38:51 10° SSW visible
03 Dec 3.3 23:41:04 10° S 23:46:07 74° WSW 23:51:13 10° NNW visible
04 Dec 4.2 11:52:05 10° NNE 11:56:57 45° E 12:01:48 10° S visible
05 Dec 5.9 00:45:20 10° SW 00:48:38 17° W 00:51:58 10° NW visible
05 Dec 5.7 11:16:18 10° NE 11:19:56 20° E 11:23:34 10° SE visible
05 Dec 3.3 12:54:19 10° N 12:59:07 43° WNW 13:03:53 10° SW visible
06 Dec 4.5 00:06:51 10° SSW 00:11:35 40° W 00:16:22 10° NNW visible
06 Dec 3.1 12:17:18 10° NNE 12:22:25 82° ESE 12:27:29 10° S visible
06 Dec 3.0 23:29:39 10° SSE 23:34:44 87° E 23:39:50 10° NNW visible
07 Dec 4.7 11:40:53 10° NNE 11:45:31 35° E 11:50:08 10° SSE visible
08 Dec 5.6 00:33:14 10° SW 00:37:09 22° W 00:41:06 10° NW visible
08 Dec 6.0 11:05:33 10° ENE 11:08:26 15° E 11:11:19 10° SE visible
08 Dec 3.1 12:42:48 10° N 12:47:46 55° WNW 12:52:42 10° SSW visible
